Location: Alsip
(41.6689°N, 87.7387°W)
Time: 15:02:17
(UTC+00:00)

Cosmos 1464 Rocket - Pass Details

Date: 14 July 2020
Orbit: 951 x 1002 km, 82.9° (Epoch: 13 August)

Event Time Altitude Azimuth Distance (km) Brightness Sun altitude
Exits shadow 08:58:18 10° 182° (S) 2,801 6.0 -14.1°
Reaches altitude 10° 08:58:23 10° 182° (S) 2,766 5.9 -14.1°
Maximum altitude 09:04:46 83° 96° (E) 1,013 4.1 -13.3°
Drops below altitude 10° 09:11:09 10° 9° (N) 2,772 7.2 -12.4°
Sets 09:13:41 0° 9° (N) 3,720 8.0 -12.1°
